Wind_Speed
35 53 67 78 84 90 97 101 103 101 105 106 104 100 98 103 106 104 102 106 108 108 118 125 123 115 114 114 115 115 110 107 101 95 93 89 81 82 84 72 72 76 80 83
30 33 43 57 72 80 86 91 97 105 108 111 109 106 102 106 106 105 103 104 106 108 110 114 118 116 117 118 119 118 118 112 104 98 92 91 89 88 85 85 73 74 72 71
39 43 41 45 56 68 82 85 88 95 100 108 110 109 106 105 111 109 107 105 104 104 108 111 111 107 112 120 123 122 120 118 114 106 104 98 92 88 88 74 78 77 68 70
46 50 50 44 48 63 69 79 88 89 93 96 100 102 104 107 111 111 108 106 107 111 108 107 108 105 104 113 119 123 124 120 118 114 108 105 102 93 84 84 83 80 80 74
50 55 56 45 48 55 60 72 77 88 87 88 88 94 86 97 104 108 111 110 110 111 109 107 107 106 102 107 111 113 117 122 119 119 115 110 100 102 101 91 88 85 77 73
52 59 60 44 40 44 49 60 66 75 82 87 79 89 81 87 92 98 103 103 108 110 109 110 109 107 103 104 110 111 112 113 116 114 116 116 113 105 107 103 97 89 85 83
51 58 58 42 37 39 43 47 52 61 68 74 81 90 78 85 90 89 92 87 94 103 105 108 111 110 107 104 105 107 107 109 110 110 106 107 110 113 107 106 106 98 93 89
58 63 69 51 38 40 44 50 47 50 56 61 74 79 83 85 89 85 85 81 83 90 98 101 105 107 109 108 107 109 107 106 107 107 108 106 102 103 108 109 106 107 105 96
61 62 68 51 44 40 40 46 54 56 53 55 61 72 81 84 86 81 79 75 77 81 86 90 94 100 104 107 109 108 109 106 107 105 106 106 104 104 103 105 106 105 107 106
62 63 67 46 41 44 40 45 50 57 51 63 56 63 75 85 87 82 77 76 75 76 79 80 84 89 94 100 105 109 109 107 108 105 104 105 103 101 99 98 99 102 104 106
62 67 70 44 37 39 39 35 41 52 50 54 56 61 69 77 81 82 78 78 75 72 72 76 77 78 83 89 97 103 109 109 108 107 106 106 104 102 99 97 95 98 97 100
66 71 71 51 39 32 31 33 35 42 46 51 57 57 62 74 81 81 83 78 75 76 75 76 74 74 76 79 87 95 101 108 109 109 107 105 106 103 101 98 98 95 92 95
66 71 71 54 40 34 28 28 30 34 42 41 50 42 66 71 75 79 84 78 77 79 76 75 77 77 75 76 78 85 93 101 107 109 110 110 111 109 107 102 101 98 95 94
67 71 72 56 43 37 31 27 23 30 36 42 43 47 62 70 67 73 83 78 76 81 83 77 75 78 79 77 79 81 87 95 102 108 110 110 110 110 110 103 102 100 99 94
68 72 72 55 44 37 32 28 25 23 31 32 42 44 55 66 67 68 72 73 76 75 87 79 76 76 80 81 80 81 85 90 96 102 108 112 113 114 112 107 108 103 97 95
71 76 73 54 42 36 33 26 25 26 27 29 38 38 51 59 64 62 69 71 75 72 65 78 85 83 81 81 83 84 83 85 91 95 100 107 112 115 114 111 111 108 105 94
71 76 72 55 41 34 32 26 25 23 27 29 33 40 47 50 57 60 63 62 67 67 64 71 90 84 78 82 82 82 84 86 86 88 93 99 103 107 110 112 114 111 107 106
72 77 68 53 41 34 32 27 24 22 29 33 34 35 40 44 50 53 54 58 62 67 61 63 75 72 78 80 82 81 83 83 84 87 88 88 89 92 98 104 105 107 108 104
73 77 65 49 40 34 27 23 22 21 33 27 31 37 40 40 46 47 52 54 55 57 49 56 56 52 55 61 68 75 78 81 80 79 81 84 87 89 92 91 92 93 95 94
75 75 59 47 38 32 26 25 24 24 32 32 28 31 34 38 39 45 40 45 44 41 42 43 43 44 47 51 50 53 57 60 64 67 67 71 72 72 76 82 86 84 80 77
77 68 54 44 38 30 29 28 27 28 29 30 28 27 29 32 32 38 35 32 32 35 35 37 36 35 39 37 34 35 38 41 42 44 47 50 52 54 56 61 65 69 73 68
75 62 49 40 35 32 27 25 25 27 27 24 25 23 24 27 29 25 26 20 18 25 29 30 31 28 26 25 24 26 27 27 28 28 30 32 37 41 41 44 47 52 54 54
69 54 45 39 34 30 26 23 24 23 22 19 18 21 21 23 21 18 18 18 21 20 18 16 16 18 17 18 18 18 17 19 19 20 22 25 27 30 34 39 51 55 56 50
59 47 39 33 28 26 22 21 19 17 14 14 14 15 12 14 16 17 17 16 15 14 15 15 13 12 13 15 16 17 18 17 17 18 18 19 23 28 36 47 52 50 50 53
50 41 34 24 22 23 15 12 13 12 9 8 8 8 5 5 6 7 9 13 17 16 14 13 14 16 16 18 22 25 28 31 33 36 35 35 37 40 43 47 53 60 59 55
41 34 26 22 17 14 14 13 12 13 12 9 8 7 7 6 8 14 17 17 18 18 19 22 25 28 36 42 47 50 53 55 54 56 60 62 59 57 56 57 53 47 44 47
Wind_Direction
277 262 256 253 251 250 249 249 247 246 246 245 245 244 243 244 245 245 244 244 245 244 242 242 246 240 242 245 247 248 247 243 244 249 253 255 255 255 260 264 265 267 269 273
311 298 277 263 255 250 249 249 248 246 247 247 246 244 245 245 246 246 244 244 243 244 244 245 244 243 241 245 245 246 247 248 244 242 247 251 254 258 258 262 260 263 269 271
323 318 305 279 264 254 250 247 247 247 246 246 246 245 244 244 245 244 245 245 245 244 244 245 245 242 242 245 245 244 246 247 246 246 247 245 250 256 258 254 256 258 261 263
324 325 317 294 269 259 252 249 245 246 246 246 246 245 245 244 245 246 245 244 244 245 244 245 245 243 240 244 245 246 246 247 247 247 247 247 248 247 249 249 251 256 261 260
326 328 323 301 278 263 254 250 249 246 245 246 246 247 242 245 246 245 245 244 244 245 245 246 246 245 242 243 245 246 247 246 247 247 246 245 245 244 244 249 254 257 259 252
330 330 327 304 285 273 262 256 252 250 248 246 244 247 241 244 246 246 244 245 245 245 245 245 245 245 243 241 244 245 246 247 246 248 247 246 246 245 243 242 249 255 252 255
331 333 329 310 292 279 268 261 255 253 252 250 244 246 245 246 245 246 247 244 246 246 244 244 244 243 243 242 243 245 245 246 247 246 247 247 247 246 247 248 249 249 250 251
337 338 333 317 301 284 271 266 259 255 251 249 248 248 247 245 247 246 249 245 244 247 246 245 244 243 241 241 240 242 243 245 245 246 247 247 247 246 246 246 246 247 248 249
335 339 333 319 310 291 274 267 259 255 252 250 248 246 247 248 248 247 249 247 244 245 246 245 243 244 242 240 239 240 241 242 244 244 245 247 247 246 247 247 247 247 244 246
335 338 332 322 302 292 281 268 262 257 248 247 245 243 245 245 248 246 245 247 244 244 244 245 244 244 243 241 239 237 239 240 242 244 245 245 246 247 248 248 249 249 249 250
335 334 333 325 308 294 283 271 258 253 254 251 243 245 246 247 247 248 245 245 246 245 245 243 245 244 244 243 241 238 237 238 239 242 243 244 246 245 245 247 246 247 247 251
334 335 336 329 316 305 290 280 271 258 250 247 245 240 245 245 245 246 245 242 244 241 242 243 243 245 244 244 243 241 237 236 238 239 240 244 246 247 248 248 249 248 248 247
335 335 337 331 318 310 300 292 279 262 258 257 251 242 244 242 245 246 248 241 238 246 243 241 242 244 243 243 243 243 241 238 237 238 239 242 243 244 246 248 249 250 251 251
335 335 337 332 320 314 307 303 288 271 261 254 250 238 243 246 242 242 246 247 237 239 246 245 243 243 244 244 242 241 242 241 239 237 239 241 243 244 246 247 248 249 249 251
335 335 337 332 318 311 308 301 293 266 260 261 256 246 242 245 245 245 245 247 248 238 239 245 248 248 246 245 244 244 242 243 242 241 240 240 241 243 244 245 242 247 248 251
335 334 335 331 319 311 308 302 286 282 272 257 253 251 242 244 246 243 247 246 247 245 242 241 244 244 247 247 246 246 246 245 244 244 245 243 243 243 244 244 244 244 243 245
334 334 333 328 321 312 309 308 288 276 269 263 255 247 248 247 247 246 247 252 255 253 244 240 244 242 245 248 250 250 249 248 248 247 246 245 246 247 246 245 246 247 244 243
333 333 332 326 320 314 308 301 291 280 265 255 253 252 253 253 251 252 251 250 252 252 250 245 250 246 247 247 249 251 253 253 251 250 248 249 249 247 247 248 247 247 247 246
332 332 330 325 320 316 311 295 280 277 267 263 251 251 250 249 254 254 253 255 254 262 262 251 257 259 257 255 252 250 251 252 254 255 252 249 247 246 246 245 244 243 244 244
333 331 330 324 321 321 318 306 291 271 273 273 269 262 260 261 264 264 262 262 263 268 267 268 262 259 256 255 254 252 252 252 252 252 253 252 251 247 244 241 242 242 241 241
331 330 328 326 323 323 321 312 300 291 280 278 274 267 260 260 255 256 263 260 256 255 252 253 257 257 252 253 253 252 248 247 247 246 245 245 245 244 241 235 233 230 230 231
330 330 329 326 324 324 322 308 299 295 290 281 275 265 260 255 259 255 260 258 244 238 239 239 238 245 248 249 247 244 242 243 242 239 238 237 234 231 230 225 213 210 210 211
331 330 329 327 330 328 325 320 307 298 288 286 260 258 247 250 253 244 230 220 220 222 227 227 228 226 221 221 220 221 220 220 219 221 219 220 219 213 204 198 186 180 182 186
329 329 328 328 331 330 333 320 316 306 301 292 270 267 251 238 221 211 201 202 207 206 207 201 194 193 193 195 189 188 179 169 162 160 161 168 174 178 173 175 175 172 164 161
330 329 329 337 340 332 344 328 329 336 331 315 286 279 269 236 199 169 170 175 167 161 151 152 155 155 155 158 147 133 131 128 131 126 128 130 138 145 151 151 150 147 145 147
330 330 330 347 353 1 15 18 33 41 38 37 41 60 87 121 135 139 138 129 126 129 134 144 136 137 134 132 126 124 121 120 119 119 121 123 122 128 128 131 130 128 134 138
Height
10599 10596 10594 10592 10592 10597 10597 10601 10607 10617 10615 10617 10626 10638 10647 10643 10643 10658 10672 10674 10679 10692 10691 10688 10705 10736 10750 10748 10751 10753 10765 10774 10787 10795 10802 10807 10812 10816 10822 10824 10825 10830 10834 10835
10590 10584 10577 10572 10573 10572 10572 10575 10579 10583 10588 10587 10600 10614 10622 10622 10629 10634 10645 10650 10657 10663 10668 10671 10684 10710 10729 10724 10727 10732 10742 10756 10767 10778 10787 10794 10796 10799 10806 10815 10816 10814 10816 10820
10576 10568 10563 10556 10549 10545 10546 10549 10553 10554 10558 10557 10574 10588 10598 10605 10596 10609 10620 10630 10637 10644 10645 10652 10660 10688 10702 10699 10703 10711 10719 10733 10744 10760 10771 10779 10784 10787 10791 10798 10800 10802 10806 10807
10561 10553 10543 10535 10528 10518 10523 10522 10523 10528 10532 10539 10545 10561 10572 10575 10576 10582 10596 10606 10611 10612 10623 10633 10640 10658 10679 10674 10681 10691 10698 10708 10719 10736 10749 10759 10767 10777 10779 10780 10785 10788 10795 10798
10548 10538 10525 10514 10504 10498 10502 10495 10501 10503 10510 10517 10529 10528 10555 10544 10549 10559 10566 10579 10586 10591 10601 10612 10621 10630 10651 10656 10659 10666 10671 10684 10697 10710 10723 10737 10747 10756 10762 10767 10770 10775 10779 10786
10537 10521 10506 10494 10487 10482 10481 10479 10481 10483 10489 10492 10516 10504 10529 10522 10525 10528 10540 10558 10564 10570 10581 10585 10595 10606 10623 10633 10631 10644 10652 10663 10679 10687 10700 10711 10725 10733 10739 10748 10755 10759 10762 10769
10528 10510 10491 10479 10475 10469 10465 10463 10466 10465 10470 10479 10490 10479 10514 10503 10504 10513 10518 10540 10541 10542 10551 10559 10568 10580 10593 10612 10618 10623 10634 10644 10653 10665 10675 10687 10697 10709 10718 10724 10735 10742 10747 10754
10503 10493 10472 10465 10463 10457 10454 10449 10451 10450 10451 10460 10465 10474 10482 10483 10481 10495 10502 10516 10522 10521 10526 10537 10541 10558 10568 10582 10593 10599 10610 10618 10629 10640 10651 10662 10669 10682 10694 10702 10710 10722 10730 10735
10490 10483 10467 10455 10445 10440 10437 10436 10433 10433 10442 10440 10452 10458 10460 10466 10468 10479 10484 10494 10498 10503 10506 10515 10522 10526 10540 10555 10567 10578 10585 10597 10605 10619 10630 10638 10648 10657 10668 10680 10690 10700 10705 10715
10480 10472 10457 10446 10434 10425 10423 10419 10416 10416 10425 10421 10434 10439 10444 10442 10446 10457 10469 10472 10479 10485 10488 10498 10499 10504 10516 10527 10542 10556 10565 10578 10586 10597 10607 10618 10628 10637 10648 10658 10669 10679 10688 10694
10471 10459 10445 10435 10425 10412 10407 10406 10402 10399 10408 10410 10419 10419 10419 10428 10432 10439 10448 10454 10462 10470 10477 10475 10482 10490 10497 10504 10516 10530 10543 10553 10566 10573 10584 10594 10604 10616 10627 10636 10646 10656 10667 10673
10457 10443 10429 10416 10409 10405 10396 10390 10390 10390 10393 10393 10396 10408 10408 10407 10407 10415 10422 10436 10444 10446 10452 10460 10469 10472 10480 10486 10493 10504 10520 10531 10541 10553 10564 10572 10581 10594 10604 10614 10623 10635 10646 10659
10449 10434 10420 10407 10398 10392 10386 10382 10380 10380 10380 10387 10382 10403 10381 10387 10393 10400 10400 10412 10426 10429 10436 10442 10449 10455 10463 10470 10475 10483 10494 10505 10517 10530 10539 10550 10560 10571 10580 10592 10603 10614 10625 10636
10439 10427 10412 10398 10387 10380 10376 10373 10373 10369 10366 10368 10373 10378 10369 10366 10380 10383 10384 10389 10404 10413 10415 10426 10435 10438 10443 10450 10457 10463 10470 10478 10491 10505 10516 10526 10537 10547 10558 10570 10581 10594 10605 10616
10429 10416 10403 10391 10379 10373 10368 10364 10362 10362 10358 10359 10356 10364 10362 10357 10362 10368 10372 10380 10381 10394 10395 10411 10418 10422 10427 10432 10438 10445 10452 10458 10467 10479 10491 10501 10512 10521 10533 10545 10558 10570 10584 10596
10417 10402 10393 10381 10372 10365 10359 10357 10354 10351 10349 10349 10347 10352 10343 10344 10345 10356 10357 10359 10363 10373 10390 10394 10390 10398 10404 10413 10422 10427 10433 10438 10446 10459 10466 10475 10484 10496 10507 10521 10532 10548 10566 10577
10409 10395 10382 10370 10364 10357 10352 10349 10345 10344 10340 10339 10339 10335 10332 10336 10334 10336 10342 10354 10355 10359 10364 10370 10364 10377 10394 10396 10399 10406 10414 10420 10425 10432 10440 10449 10459 10469 10483 10496 10507 10524 10542 10558
10400 10385 10373 10361 10354 10349 10344 10340 10337 10335 10329 10326 10328 10328 10328 10330 10329 10331 10335 10336 10335 10333 10344 10355 10354 10363 10369 10377 10382 10389 10392 10395 10401 10409 10418 10427 10435 10446 10457 10467 10484 10497 10513 10535
10391 10378 10363 10352 10345 10340 10335 10330 10328 10326 10317 10324 10320 10319 10319 10317 10317 10319 10317 10320 10327 10326 10334 10338 10343 10352 10359 10364 10365 10365 10369 10373 10379 10387 10392 10396 10405 10419 10429 10443 10452 10468 10485 10506
10382 10366 10355 10344 10337 10331 10326 10322 10320 10317 10311 10309 10312 10311 10310 10311 10313 10309 10314 10314 10315 10321 10325 10327 10329 10334 10338 10341 10346 10351 10355 10358 10361 10363 10370 10375 10380 10390 10402 10416 10428 10446 10469 10483
10371 10357 10346 10336 10329 10325 10319 10315 10311 10309 10307 10303 10303 10302 10302 10302 10303 10301 10300 10304 10306 10306 10310 10315 10320 10324 10326 10329 10333 10337 10339 10342 10345 10350 10353 10358 10363 10370 10378 10390 10406 10427 10446 10466
10363 10347 10337 10330 10324 10317 10312 10307 10304 10300 10297 10296 10294 10296 10296 10295 10295 10296 10296 10298 10300 10302 10303 10307 10311 10315 10318 10321 10323 10325 10327 10332 10335 10339 10342 10347 10352 10358 10366 10378 10389 10407 10430 10454
10353 10341 10331 10323 10317 10311 10306 10302 10297 10294 10291 10289 10288 10287 10287 10287 10289 10289 10290 10292 10293 10296 10299 10302 10305 10309 10312 10314 10316 10320 10323 10327 10331 10334 10336 10339 10344 10351 10358 10370 10382 10397 10419 10446
10345 10334 10327 10319 10313 10306 10302 10297 10293 10289 10287 10285 10284 10283 10283 10284 10284 10284 10285 10288 10291 10294 10296 10299 10302 10305 10308 10311 10315 10319 10322 10326 10329 10332 10335 10340 10345 10352 10361 10374 10388 10406 10427 10447
10338 10329 10321 10316 10308 10301 10299 10295 10292 10289 10286 10284 10283 10283 10284 10285 10286 10285 10287 10290 10291 10293 10296 10300 10303 10307 10311 10315 10318 10323 10327 10329 10334 10335 10342 10348 10357 10366 10376 10387 10402 10416 10429 10446
10334 10325 10317 10312 10307 10302 10298 10296 10294 10291 10290 10288 10287 10288 10288 10290 10292 10290 10291 10292 10294 10297 10300 10304 10307 10312 10317 10322 10328 10333 10336 10341 10345 10351 10356 10362 10372 10381 10392 10405 10420 10432 10446 10459